Kalispell, MT

5:30 AM MDT on April 25, 2017 (GMT -0600)
Glacier Park International

Weather History for KGPI - August, 2013

Change the Weather History Date:

Monday, August 5, 2013

  Actual Average Record
Temperature  
Mean Temperature 65 °F 66 °F  
Max Temperature 81 °F 84 °F 103 °F (1961)
Min Temperature 48 °F 48 °F 38 °F (1964)
Degree Days  
Heating Degree Days 0 2  
Month to date heating degree days 11 10  
Since 1 June heating degree days 216 303  
Since 1 July heating degree days 30 87  
Cooling Degree Days 0 3  
Month to date cooling degree days 1 15  
Year to date cooling degree days 142 98  
Since 1 June cooling degree days 142 95  
Growing Degree Days 14 (Base 50)    
Moisture  
Dew Point 51 °F    
Average Humidity 65    
Maximum Humidity 93    
Minimum Humidity 37    
Precipitation  
Precipitation 0.02 in 0.02 in 0.48 in (1933)
Month to date precipitation 0.89 0.14  
Year to date precipitation 10.21 10.76  
Snow  
Snow 0.00 in - - ()
Month to date snowfall 0.0  
Year to date snowfall 10.1  
Since 1 July snowfall 0.0  
Snow Depth 0.00 in    
Sea Level Pressure  
Sea Level Pressure 29.97 in    
Wind  
Wind Speed 3 mph (WNW)    
Max Wind Speed 15 mph    
Max Gust Speed 22 mph    
Visibility 10 miles    
Events Rain    
T = Trace of Precipitation, MM = Missing Value Source: NWS Daily Summary

Daily Weather History Graph

Daily Weather History Graph

Search for Another Location

Airport or City:

Trip Planner

Search our weather history database for the weather conditions in past years. The results will help you decide how hot, cold, wet, or windy it might be!

Date:

Astronomy

Aug. 05, 2013 Rise Set
Actual Time 6:17 AM MDT 9:07 PM MDT
Civil Twilight 5:41 AM MDT 9:42 PM MDT
Nautical Twilight 4:55 AM MDT 10:28 PM MDT
Astronomical Twilight 4:00 AM MDT 11:23 PM MDT
Moon 5:18 AM MDT (8/5) 8:06 PM MDT (8/5)
Length of Visible Light 16h 01m
Length of Day
14h 49m
Waning Crescent, 1% of the Moon is Illuminated
Aug 5
Waning Crescent
Aug 6
New
Aug 14
First Quarter
Aug 20
Full
Aug 28
Last Quarter

Hourly Weather History & Observations

Time (MDT) Temp. Dew Point Humidity Pressure Visibility Wind Dir Wind Speed Gust Speed Precip Events Conditions
12:55 AM 57.0 °F 53.1 °F 87% 29.99 in 10.0 mi Calm Calm - N/A   Clear
1:55 AM 53.1 °F 51.1 °F 93% 29.99 in 10.0 mi WNW 4.6 mph - N/A   Clear
2:55 AM 54.0 °F 51.1 °F 90% 29.99 in 10.0 mi WNW 3.5 mph - N/A   Clear
3:55 AM 51.1 °F 48.9 °F 92% 29.99 in 10.0 mi West 3.5 mph - N/A   Clear
4:55 AM 50.0 °F 48.9 °F 96% 29.99 in 10.0 mi Calm Calm - N/A   Clear
5:55 AM 50.0 °F 48.0 °F 93% 29.99 in 10.0 mi Calm Calm - N/A   Clear
6:55 AM 48.9 °F 46.9 °F 93% 30.00 in 7.0 mi WNW 3.5 mph - N/A   Clear
7:55 AM 57.9 °F 52.0 °F 81% 29.99 in 10.0 mi Calm Calm - N/A   Clear
8:55 AM 62.1 °F 52.0 °F 70% 30.00 in 10.0 mi Calm Calm - N/A   Clear
9:55 AM 64.0 °F 52.0 °F 65% 29.99 in 10.0 mi Calm Calm - N/A   Clear
10:55 AM 68.0 °F 53.1 °F 59% 29.99 in 10.0 mi ESE 3.5 mph - N/A   Partly Cloudy
11:55 AM 71.1 °F 53.1 °F 53% 29.98 in 10.0 mi South 3.5 mph - N/A   Clear
12:55 PM 73.9 °F 53.1 °F 48% 29.96 in 10.0 mi Calm Calm - N/A   Scattered Clouds
1:05 PM 73.4 °F 53.6 °F 50% 30.00 in 10.0 mi North 11.5 mph - N/A   Scattered Clouds
1:24 PM 75.2 °F 55.4 °F 50% 29.99 in 10.0 mi North 11.5 mph - N/A   Partly Cloudy
1:55 PM 75.9 °F 53.1 °F 45% 29.95 in 10.0 mi South 3.5 mph - N/A   Clear
2:55 PM 77.0 °F 54.0 °F 45% 29.93 in 10.0 mi Variable 4.6 mph - 0.01 in Rain Light Rain
3:55 PM 79.0 °F 51.1 °F 38% 29.91 in 10.0 mi Calm Calm - 0.00 in   Partly Cloudy
4:55 PM 78.1 °F 50.0 °F 37% 29.91 in 10.0 mi Variable 5.8 mph 19.6 mph N/A   Scattered Clouds
5:55 PM 70.0 °F 52.0 °F 53% 29.95 in 10.0 mi Variable 6.9 mph - 0.01 in Rain Light Rain
6:55 PM 73.0 °F 48.9 °F 42% 29.93 in 10.0 mi North 5.8 mph - 0.00 in   Scattered Clouds
7:55 PM 73.9 °F 50.0 °F 43% 29.92 in 10.0 mi NW 3.5 mph - N/A   Mostly Cloudy
8:55 PM 66.0 °F 52.0 °F 60% 29.95 in 10.0 mi Calm Calm - N/A   Clear
9:55 PM 63.0 °F 52.0 °F 67% 29.97 in 10.0 mi Calm Calm - N/A   Partly Cloudy
10:55 PM 61.0 °F 52.0 °F 72% 29.96 in 10.0 mi West 5.8 mph - N/A   Clear
11:55 PM 59.0 °F 51.1 °F 75% 29.97 in 10.0 mi NW 3.5 mph - N/A   Scattered Clouds